Regional Weather Roundup
Issued by NWS Cleveland, OH

Home | Current Version | Previous Version | Graphics & Text | Print | Product List | Glossary On
Versions: 1 2 3 4 5 6 7 8 9 10 11 12 13 14 15 16 17 18 19 20 21 22 23 24 25 26 27 28 29 30 31 32 33 34 35 36 37 38 39 40 41 42 43 44 45 46 47 48 49 50
000
ASUS41 KCLE 301910
RWRCLE
OHIO REGIONAL WEATHER ROUNDUP
NATIONAL WEATHER SERVICE CLEVELAND, OH
300 PM EDT WED JUL 30 2014

NOTE: "FAIR" INDICATES FEW OR NO CLOUDS BELOW 12,000 FEET WITH NO
SIGNIFICANT WEATHER AND/OR OBSTRUCTIONS TO VISIBILITY.

OHZ001>008-015>018-024>027-034-035-043-044-302000-
   NORTHWEST OHIO

CITY           SKY/WX    TMP DP  RH WIND       PRES   REMARKS
DEFIANCE       PTSUNNY   76  57  51 VRB6      30.01F
FINDLAY        MOSUNNY   79  58  48 W12       30.00F
TOLEDO EXPRESS PTSUNNY   74  56  53 W6        29.99F
TOLEDO EXEC    PTSUNNY   76  56  49 W8        29.99F
LIMA           MOSUNNY   75  58  55 W13       30.02F
$$

OHZ009>014-019>023-028>033-038-089-302000-
   NORTHEAST OHIO

CITY           SKY/WX    TMP DP  RH WIND       PRES   REMARKS
CLE-HOPKINS    TSTM      68  60  75 CALM      30.01F
CLE-LAKEFRONT  MOSUNNY   73  58  59 W10       29.98F
CUY CO. ARPT   MOSUNNY   73  61  64 W14       30.00F
LORAIN-ELYRIA  PTSUNNY   76  59  55 NW10      30.00F
ASHTABULA      PTSUNNY   70  57  63 NW10      30.01S
AKRON-CANTON   PTSUNNY   73  54  51 SW12      30.02F
WOOSTER        PTSUNNY   68  56  65 SW6       30.03F
MANSFIELD      MOSUNNY   76  60  57 W8G16     30.02F
YOUNGSTOWN     PTSUNNY   73  55  53 W8        30.01F
$$

OHZ042-051>053-060>062-070>072-077>081-302000-
  SOUTHWEST OHIO

CITY           SKY/WX    TMP DP  RH WIND       PRES   REMARKS
CINC-COVINGTON MOSUNNY   78  57  48 W10       30.05F
CINC-LUNKEN    MOSUNNY   79  59  50 W13G22    30.03F
HAMILTON       LGT RAIN  76  61  59 W8        30.04F
DAYTON         PTSUNNY   76  58  53 W12G25    30.04S
WRIGHT-PAT AFB LGT RAIN  69  62  76 SW13      30.03S
DAYTON GENERAL MOSUNNY   78  60  53 W12G18    30.02F THUNDER
WILMINGTON     TSTM      70  59  68 SW7G17    30.04R
$$

OHZ036-037-039>041-045>050-054>059-063>069-073>076-082>088-302000-
  CENTRAL AND SOUTHEAST OHIO

CITY           SKY/WX    TMP DP  RH WIND       PRES   REMARKS
COLUMBUS       LGT RAIN  68  57  68 SW12      30.03R
OSU AIRPORT    PTSUNNY   68  57  68 SW14G21   30.03R
BOLTON FIELD   CLOUDY    63  59  88 SW5       30.05R
RICKENBACK AFB TSTM      65  56  74 SW5       30.05R
NEWARK         CLOUDY    73  58  59 S10       30.01F THUNDER
MARION         PTSUNNY   74  59  59 NW12      30.01F
LANCASTER      TSTM      70  60  70 W9        30.03F
ZANESVILLE     PTSUNNY   75  56  51 VRB6      30.02F
NEW PHILLY     LGT RAIN  70  57  63 VRB5      30.02F
$$


USA.gov is the U.S. government's official web portal to all federal, state and local government web resources and services.